START_TIME,STEP,MOV.,P11,t_acc.,P23,t_acc.,P27,t_acc.,A4,t_acc.
1979-07-05 12:00:23.840 ,0,0,0.,4.8,0.,4.8,0.,4.8,0.,4.8
1979-07-05 12:00:28.640 ,0,0,0.,4.8,0.,4.8,0.,4.8,0.,4.8
1979-07-05 12:00:33.440 ,0,0,0.,4.8,0.,4.8,0.,4.8,0.,4.8
1979-07-05 12:00:38.240 ,0,0,1.,4.8,0.,4.8,1.,4.8,0.,4.8
1979-07-05 12:00:43.040 ,0,0,0.,4.8,0.,4.8,1.,4.8,0.,4.8
1979-07-05 12:00:47.840 ,1,0,1.,4.8,0.,4.8,0.,4.8,0.,4.8
1979-07-05 12:00:52.640 ,1,0,1.,4.8,0.,4.8,0.,4.8,0.,4.8
1979-07-05 12:00:57.440 ,1,0,0.,4.8,0.,4.8,0.,4.8,0.,4.8
1979-07-05 12:01:02.240 ,1,0,1.,4.8,0.,4.8,0.,4.8,0.,4.8
1979-07-05 12:01:07.040 ,1,0,0.,4.8,0.,4.8,0.,4.8,0.,4.8
1979-07-05 12:01:11.840 ,1,0,0.,4.8,0.,4.8,0.,4.8,0.,4.8
1979-07-05 12:01:16.640 ,1,0,0.,4.8,0.,4.8,0.,4.8,0.,4.8
1979-07-05 12:01:21.440 ,1,0,0.,4.8,0.,4.8,0.,4.8,0.,4.8
1979-07-05 12:01:26.240 ,1,0,0.,4.8,0.,4.8,0.,4.8,0.,4.8
1979-07-05 12:01:31.040 ,1,0,0.,4.8,0.,4.8,0.,4.8,0.,4.8
1979-07-05 12:01:35.840 ,2,0,0.,4.8,0.,4.8,0.,4.8,0.,4.8
1979-07-05 12:01:40.640 ,2,0,2.,4.8,0.,4.8,0.,4.8,0.,4.8
1979-07-05 12:01:45.440 ,2,0,0.,4.8,1.,4.8,0.,4.8,0.,4.8
1979-07-05 12:01:50.240 ,2,0,1.,4.8,0.,4.8,0.,4.8,0.,4.8
1979-07-05 12:01:55.040 ,2,0,0.,4.8,0.,4.8,0.,4.8,0.,4.8
1979-07-05 12:01:59.840 ,2,0,0.,4.8,0.,4.8,0.,4.8,0.,4.8
1979-07-05 12:02:04.640 ,2,0,1.,4.8,0.,4.8,0.,4.8,0.,4.8
1979-07-05 12:02:09.440 ,2,0,0.,4.8,0.,4.8,0.,4.8,0.,4.8
1979-07-05 12:02:14.240 ,2,0,0.,4.8,0.,4.8,0.,4.8,0.,4.8
1979-07-05 12:02:19.040 ,2,0,0.,4.8,0.,4.8,0.,4.8,0.,4.8
1979-07-05 12:02:23.840 ,3,0,0.,4.8,0.,4.8,0.,4.8,0.,4.8
1979-07-05 12:02:28.640 ,3,0,0.,4.8,0.,4.8,0.,4.8,0.,4.8
1979-07-05 12:02:33.440 ,3,0,0.,4.8,0.,4.8,0.,4.8,0.,4.8
1979-07-05 12:02:38.240 ,3,0,0.,4.8,0.,4.8,0.,4.8,0.,4.8
1979-07-05 12:02:43.040 ,3,0,0.,4.8,0.,4.8,0.,4.8,0.,4.8
1979-07-05 12:02:47.840 ,3,0,0.,4.8,0.,4.8,0.,4.8,0.,4.8
1979-07-05 12:02:52.640 ,3,0,0.,4.8,0.,4.8,0.,4.8,0.,4.8
1979-07-05 12:02:57.440 ,3,0,1.,4.8,0.,4.8,0.,4.8,0.,4.8
1979-07-05 12:03:02.240 ,3,0,0.,4.8,0.,4.8,0.,4.8,0.,4.8
1979-07-05 12:03:07.040 ,3,0,0.,4.8,0.,4.8,0.,4.8,0.,4.8
1979-07-05 12:03:11.840 ,4,0,0.,4.8,0.,4.8,0.,4.8,0.,4.8
1979-07-05 12:03:16.640 ,4,0,1.,4.8,0.,4.8,0.,4.8,0.,4.8
1979-07-05 12:03:21.440 ,4,0,0.,4.8,0.,4.8,0.,4.8,0.,4.8
1979-07-05 12:03:26.240 ,4,0,1.,4.8,0.,4.8,0.,4.8,0.,4.8
1979-07-05 12:03:31.040 ,4,0,0.,4.8,0.,4.8,0.,4.8,0.,4.8
1979-07-05 12:03:35.840 ,4,0,0.,4.8,0.,4.8,0.,4.8,0.,4.8
1979-07-05 12:03:40.640 ,4,0,0.,4.8,0.,4.8,0.,4.8,0.,4.8
1979-07-05 12:03:45.440 ,4,0,1.,4.8,0.,4.8,0.,4.8,0.,4.8
1979-07-05 12:03:50.240 ,4,0,1.,4.8,0.,4.8,0.,4.8,0.,4.8
1979-07-05 12:03:55.040 ,4,0,0.,4.8,0.,4.8,0.,4.8,0.,4.8
1979-07-05 12:03:59.840 ,5,0,0.,4.8,0.,4.8,0.,4.8,0.,4.8
1979-07-05 12:04:04.640 ,5,0,0.,4.8,0.,4.8,0.,4.8,0.,4.8
1979-07-05 12:04:09.440 ,5,0,1.,4.8,0.,4.8,0.,4.8,0.,4.8
1979-07-05 12:04:14.240 ,5,0,0.,4.8,0.,4.8,0.,4.8,0.,4.8
1979-07-05 12:04:19.040 ,5,0,1.,4.8,0.,4.8,0.,4.8,0.,4.8
1979-07-05 12:04:23.840 ,5,0,0.,4.8,0.,4.8,0.,4.8,0.,4.8
1979-07-05 12:04:28.640 ,5,0,0.,4.8,0.,4.8,0.,4.8,0.,4.8
1979-07-05 12:04:33.440 ,5,0,0.,4.8,0.,4.8,1.,4.8,0.,4.8
1979-07-05 12:04:38.240 ,5,0,0.,4.8,1.,4.8,0.,4.8,0.,4.8
1979-07-05 12:04:43.040 ,5,0,0.,4.8,0.,4.8,0.,4.8,0.,4.8
1979-07-05 12:04:47.840 ,6,0,1.,4.8,0.,4.8,0.,4.8,0.,4.8
1979-07-05 12:04:52.640 ,6,0,0.,4.8,0.,4.8,0.,4.8,0.,4.8
1979-07-05 12:04:57.440 ,6,0,0.,4.8,0.,4.8,0.,4.8,0.,4.8
1979-07-05 12:05:02.240 ,6,0,1.,4.8,0.,4.8,0.,4.8,0.,4.8
1979-07-05 12:05:07.040 ,6,0,1.,4.8,0.,4.8,0.,4.8,0.,4.8
1979-07-05 12:05:11.840 ,6,0,0.,4.8,0.,4.8,0.,4.8,1.,4.8
1979-07-05 12:05:16.640 ,6,0,0.,4.8,0.,4.8,0.,4.8,0.,4.8
1979-07-05 12:05:21.440 ,6,0,0.,4.8,0.,4.8,0.,4.8,0.,4.8
1979-07-05 12:05:26.240 ,6,0,0.,4.8,0.,4.8,0.,4.8,0.,4.8
1979-07-05 12:05:31.040 ,6,0,1.,4.8,0.,4.8,0.,4.8,0.,4.8
1979-07-05 12:05:35.840 ,7,0,1.,4.8,0.,4.8,0.,4.8,0.,4.8
1979-07-05 12:05:40.640 ,7,0,0.,4.8,0.,4.8,0.,4.8,0.,4.8
1979-07-05 12:05:45.440 ,7,0,0.,4.8,0.,4.8,0.,4.8,0.,4.8
1979-07-05 12:05:50.240 ,7,0,0.,4.8,0.,4.8,0.,4.8,0.,4.8
1979-07-05 12:05:55.040 ,7,0,0.,4.8,0.,4.8,0.,4.8,0.,4.8
1979-07-05 12:05:59.840 ,7,0,0.,4.8,0.,4.8,0.,4.8,0.,4.8
1979-07-05 12:06:04.640 ,7,0,0.,4.8,0.,4.8,0.,4.8,0.,4.8
1979-07-05 12:06:09.440 ,7,0,0.,4.8,0.,4.8,0.,4.8,0.,4.8
1979-07-05 12:06:14.240 ,7,0,0.,4.8,0.,4.8,0.,4.8,0.,4.8
1979-07-05 12:06:19.040 ,7,0,1.,4.8,0.,4.8,0.,4.8,0.,4.8
1979-07-05 12:06:23.840 ,7,0,0.,4.8,0.,4.8,0.,4.8,0.,4.8
1979-07-05 12:06:28.640 ,7,0,1.,4.8,0.,4.8,0.,4.8,0.,4.8
1979-07-05 12:06:33.440 ,7,0,0.,4.8,0.,4.8,0.,4.8,0.,4.8
1979-07-05 12:06:38.240 ,7,0,1.,4.8,0.,4.8,0.,4.8,0.,4.8
1979-07-05 12:06:43.040 ,7,0,0.,4.8,0.,4.8,0.,4.8,0.,4.8
1979-07-05 12:06:47.840 ,7,0,0.,4.8,0.,4.8,0.,4.8,0.,4.8
1979-07-05 12:06:52.640 ,7,0,1.,4.8,0.,4.8,0.,4.8,0.,4.8
1979-07-05 12:06:57.440 ,7,0,0.,4.8,0.,4.8,0.,4.8,0.,4.8
1979-07-05 12:07:02.240 ,7,0,0.,4.8,0.,4.8,0.,4.8,0.,4.8
1979-07-05 12:07:07.040 ,7,0,2.,4.8,0.,4.8,0.,4.8,0.,4.8
1979-07-05 12:07:11.840 ,6,0,0.,4.8,0.,4.8,0.,4.8,0.,4.8
1979-07-05 12:07:16.640 ,6,0,1.,4.8,0.,4.8,0.,4.8,0.,4.8
1979-07-05 12:07:21.440 ,6,0,0.,4.8,0.,4.8,1.,4.8,0.,4.8
1979-07-05 12:07:26.240 ,6,0,0.,4.8,0.,4.8,0.,4.8,0.,4.8
1979-07-05 12:07:31.040 ,6,0,0.,4.8,0.,4.8,1.,4.8,0.,4.8
1979-07-05 12:07:35.840 ,6,0,1.,4.8,0.,4.8,0.,4.8,0.,4.8
1979-07-05 12:07:40.640 ,6,0,0.,4.8,0.,4.8,0.,4.8,0.,4.8
1979-07-05 12:07:45.440 ,6,0,0.,4.8,0.,4.8,0.,4.8,0.,4.8
1979-07-05 12:07:50.240 ,6,0,0.,4.8,0.,4.8,1.,4.8,0.,4.8
1979-07-05 12:07:55.040 ,6,0,0.,4.8,0.,4.8,0.,4.8,0.,4.8
1979-07-05 12:07:59.840 ,5,0,1.,4.8,0.,4.8,0.,4.8,0.,4.8
1979-07-05 12:08:04.640 ,5,0,0.,4.8,0.,4.8,0.,4.8,0.,4.8
1979-07-05 12:08:09.440 ,5,0,1.,4.8,0.,4.8,0.,4.8,0.,4.8
1979-07-05 12:08:14.240 ,5,0,0.,4.8,0.,4.8,0.,4.8,0.,4.8
1979-07-05 12:08:19.040 ,5,0,0.,4.8,0.,4.8,0.,4.8,0.,4.8
1979-07-05 12:08:23.840 ,5,0,1.,4.8,0.,4.8,0.,4.8,0.,4.8
1979-07-05 12:08:28.640 ,5,0,2.,4.8,0.,4.8,0.,4.8,0.,4.8
1979-07-05 12:08:33.440 ,5,0,0.,4.8,0.,4.8,0.,4.8,0.,4.8
1979-07-05 12:08:38.240 ,5,0,0.,4.8,0.,4.8,2.,4.8,0.,4.8
1979-07-05 12:08:43.040 ,5,0,0.,4.8,0.,4.8,0.,4.8,0.,4.8
1979-07-05 12:08:47.840 ,4,0,0.,4.8,0.,4.8,0.,4.8,0.,4.8
1979-07-05 12:08:52.640 ,4,0,0.,4.8,0.,4.8,0.,4.8,0.,4.8
1979-07-05 12:08:57.440 ,4,0,0.,4.8,0.,4.8,0.,4.8,0.,4.8
1979-07-05 12:09:02.240 ,4,0,0.,4.8,0.,4.8,0.,4.8,0.,4.8
1979-07-05 12:09:07.040 ,4,0,0.,4.8,0.,4.8,0.,4.8,0.,4.8
1979-07-05 12:09:11.840 ,4,0,0.,4.8,1.,4.8,0.,4.8,0.,4.8
1979-07-05 12:09:16.640 ,4,0,0.,4.8,0.,4.8,0.,4.8,0.,4.8
1979-07-05 12:09:21.440 ,4,0,1.,4.8,0.,4.8,0.,4.8,0.,4.8
1979-07-05 12:09:26.240 ,4,0,0.,4.8,0.,4.8,0.,4.8,0.,4.8
1979-07-05 12:09:31.040 ,4,0,0.,4.8,0.,4.8,0.,4.8,0.,4.8
1979-07-05 12:09:35.840 ,3,0,1.,4.8,0.,4.8,0.,4.8,0.,4.8
1979-07-05 12:09:40.640 ,3,0,0.,4.8,0.,4.8,0.,4.8,0.,4.8
1979-07-05 12:09:45.440 ,3,0,0.,4.8,0.,4.8,0.,4.8,0.,4.8
1979-07-05 12:09:50.240 ,3,0,0.,4.8,0.,4.8,0.,4.8,0.,4.8
1979-07-05 12:09:55.040 ,3,0,1.,4.8,0.,4.8,0.,4.8,0.,4.8
1979-07-05 12:09:59.840 ,3,0,0.,4.8,0.,4.8,0.,4.8,0.,4.8
1979-07-05 12:10:04.640 ,3,0,0.,4.8,0.,4.8,1.,4.8,0.,4.8
1979-07-05 12:10:09.440 ,3,0,1.,4.8,0.,4.8,0.,4.8,0.,4.8
1979-07-05 12:10:14.240 ,3,0,0.,4.8,0.,4.8,0.,4.8,0.,4.8
1979-07-05 12:10:19.040 ,3,0,1.,4.8,0.,4.8,0.,4.8,0.,4.8
1979-07-05 12:10:23.840 ,2,0,0.,4.8,0.,4.8,0.,4.8,0.,4.8
1979-07-05 12:10:28.640 ,2,0,0.,4.8,0.,4.8,0.,4.8,0.,4.8
1979-07-05 12:10:33.440 ,2,0,0.,4.8,0.,4.8,0.,4.8,0.,4.8
1979-07-05 12:10:38.240 ,2,0,0.,4.8,0.,4.8,0.,4.8,0.,4.8
1979-07-05 12:10:43.040 ,2,0,0.,4.8,0.,4.8,0.,4.8,0.,4.8
1979-07-05 12:10:47.840 ,2,0,0.,4.8,0.,4.8,0.,4.8,0.,4.8
1979-07-05 12:10:52.640 ,2,0,0.,4.8,0.,4.8,0.,4.8,0.,4.8
1979-07-05 12:10:57.440 ,2,0,0.,4.8,0.,4.8,1.,4.8,0.,4.8
1979-07-05 12:11:02.240 ,2,0,1.,4.8,0.,4.8,0.,4.8,0.,4.8
1979-07-05 12:11:07.040 ,2,0,0.,4.8,0.,4.8,0.,4.8,0.,4.8
1979-07-05 12:11:11.840 ,1,0,1.,4.8,0.,4.8,0.,4.8,0.,4.8
1979-07-05 12:11:16.640 ,1,0,1.,4.8,0.,4.8,0.,4.8,0.,4.8
1979-07-05 12:11:21.440 ,1,0,1.,4.8,0.,4.8,0.,4.8,0.,4.8
1979-07-05 12:11:26.240 ,1,0,1.,4.8,0.,4.8,1.,4.8,0.,4.8
1979-07-05 12:11:31.040 ,1,0,2.,4.8,0.,4.8,0.,4.8,0.,4.8
1979-07-05 12:11:35.840 ,1,0,0.,4.8,0.,4.8,0.,4.8,0.,4.8
1979-07-05 12:11:40.640 ,1,0,1.,4.8,0.,4.8,0.,4.8,0.,4.8
1979-07-05 12:11:45.440 ,1,0,1.,4.8,0.,4.8,1.,4.8,0.,4.8
1979-07-05 12:11:50.240 ,1,0,0.,4.8,0.,4.8,0.,4.8,0.,4.8
1979-07-05 12:11:55.040 ,1,0,0.,4.8,0.,4.8,0.,4.8,0.,4.8
1979-07-05 12:11:59.840 ,0,0,0.,4.8,0.,4.8,1.,4.8,0.,4.8
1979-07-05 12:12:04.640 ,0,0,1.,4.8,0.,4.8,0.,4.8,0.,4.8
1979-07-05 12:12:09.440 ,0,0,1.,4.8,0.,4.8,0.,4.8,0.,4.8
1979-07-05 12:12:14.240 ,0,0,0.,4.8,0.,4.8,0.,4.8,0.,4.8
1979-07-05 12:12:19.040 ,0,0,0.,4.8,1.,4.8,0.,4.8,0.,4.8
1979-07-05 12:12:23.840 ,0,0,2.,4.8,0.,4.8,0.,4.8,0.,4.8
1979-07-05 12:12:28.640 ,0,0,1.,4.8,0.,4.8,0.,4.8,0.,4.8
1979-07-05 12:12:33.440 ,0,0,0.,4.8,0.,4.8,0.,4.8,0.,4.8
1979-07-05 12:12:38.240 ,0,0,0.,4.8,0.,4.8,1.,4.8,0.,4.8
1979-07-05 12:12:43.040 ,0,0,0.,4.8,0.,4.8,1.,4.8,0.,4.8
1979-07-05 12:12:47.840 ,0,0,0.,4.8,0.,4.8,0.,4.8,0.,4.8
1979-07-05 12:12:52.640 ,0,0,0.,4.8,0.,4.8,0.,4.8,0.,4.8
1979-07-05 12:12:57.440 ,0,0,0.,4.8,0.,4.8,0.,4.8,0.,4.8
1979-07-05 12:13:02.240 ,0,0,0.,4.8,0.,4.8,0.,4.8,0.,4.8
1979-07-05 12:13:07.040 ,0,0,0.,4.8,0.,4.8,0.,4.8,0.,4.8
1979-07-05 12:13:11.840 ,0,0,0.,4.8,0.,4.8,0.,4.8,0.,4.8
1979-07-05 12:13:16.640 ,0,0,0.,4.8,0.,4.8,1.,4.8,0.,4.8
1979-07-05 12:13:21.440 ,0,0,0.,4.8,0.,4.8,1.,4.8,0.,4.8
1979-07-05 12:13:26.240 ,0,0,0.,4.8,0.,4.8,0.,4.8,0.,4.8
1979-07-05 12:13:31.040 ,0,0,0.,4.8,0.,4.8,0.,4.8,0.,4.8
1979-07-05 12:13:35.840 ,1,0,1.,4.8,0.,4.8,0.,4.8,0.,4.8
1979-07-05 12:13:40.640 ,1,0,3.,4.8,0.,4.8,0.,4.8,0.,4.8
1979-07-05 12:13:45.440 ,1,0,0.,4.8,0.,4.8,1.,4.8,0.,4.8
1979-07-05 12:13:50.240 ,1,0,2.,4.8,0.,4.8,0.,4.8,0.,4.8
1979-07-05 12:13:55.040 ,1,0,0.,4.8,0.,4.8,0.,4.8,0.,4.8
1979-07-05 12:13:59.840 ,1,0,1.,4.8,0.,4.8,1.,4.8,0.,4.8
1979-07-05 12:14:04.640 ,1,0,1.,4.8,0.,4.8,0.,4.8,0.,4.8
1979-07-05 12:14:09.440 ,1,0,0.,4.8,1.,4.8,0.,4.8,0.,4.8
1979-07-05 12:14:14.240 ,1,0,1.,4.8,0.,4.8,0.,4.8,0.,4.8
1979-07-05 12:14:19.040 ,1,0,0.,4.8,0.,4.8,0.,4.8,0.,4.8
1979-07-05 12:14:23.840 ,2,0,0.,4.8,0.,4.8,0.,4.8,0.,4.8
1979-07-05 12:14:28.640 ,2,0,0.,4.8,0.,4.8,0.,4.8,0.,4.8
1979-07-05 12:14:33.440 ,2,0,0.,4.8,0.,4.8,0.,4.8,0.,4.8
1979-07-05 12:14:38.240 ,2,0,0.,4.8,0.,4.8,0.,4.8,0.,4.8
1979-07-05 12:14:43.040 ,2,0,0.,4.8,0.,4.8,0.,4.8,0.,4.8
1979-07-05 12:14:47.840 ,2,0,0.,4.8,0.,4.8,0.,4.8,0.,4.8
1979-07-05 12:14:52.640 ,2,0,0.,4.8,0.,4.8,0.,4.8,0.,4.8
1979-07-05 12:14:57.440 ,2,0,2.,4.8,0.,4.8,0.,4.8,0.,4.8
1979-07-05 12:15:02.240 ,2,0,1.,4.8,0.,4.8,0.,4.8,0.,4.8
1979-07-05 12:15:07.040 ,2,0,0.,4.8,0.,4.8,0.,4.8,0.,4.8
1979-07-05 12:15:11.840 ,3,0,0.,4.8,0.,4.8,0.,4.8,0.,4.8
1979-07-05 12:15:16.640 ,3,0,0.,4.8,0.,4.8,0.,4.8,0.,4.8
1979-07-05 12:15:21.440 ,3,0,0.,4.8,0.,4.8,0.,4.8,0.,4.8
1979-07-05 12:15:26.240 ,3,0,0.,4.8,0.,4.8,0.,4.8,0.,4.8
1979-07-05 12:15:31.040 ,3,0,0.,4.8,0.,4.8,0.,4.8,0.,4.8
1979-07-05 12:15:35.840 ,3,0,0.,4.8,0.,4.8,0.,4.8,0.,4.8
1979-07-05 12:15:40.640 ,3,0,1.,4.8,0.,4.8,0.,4.8,0.,4.8
1979-07-05 12:15:45.440 ,3,0,0.,4.8,0.,4.8,0.,4.8,0.,4.8
1979-07-05 12:15:50.240 ,3,0,1.,4.8,0.,4.8,0.,4.8,0.,4.8
1979-07-05 12:15:55.040 ,3,0,1.,4.8,0.,4.8,0.,4.8,0.,4.8
1979-07-05 12:15:59.840 ,4,0,1.,4.8,0.,4.8,0.,4.8,0.,4.8
1979-07-05 12:16:04.640 ,4,0,0.,4.8,0.,4.8,0.,4.8,0.,4.8
1979-07-05 12:16:09.440 ,4,0,0.,4.8,0.,4.8,0.,4.8,0.,4.8
1979-07-05 12:16:14.240 ,4,0,0.,4.8,0.,4.8,0.,4.8,0.,4.8
1979-07-05 12:16:19.040 ,4,0,0.,4.8,0.,4.8,0.,4.8,0.,4.8
1979-07-05 12:16:23.840 ,4,0,0.,4.8,0.,4.8,0.,4.8,0.,4.8
1979-07-05 12:16:28.640 ,4,0,0.,4.8,0.,4.8,0.,4.8,0.,4.8
1979-07-05 12:16:33.440 ,4,0,0.,4.8,0.,4.8,0.,4.8,0.,4.8
1979-07-05 12:16:38.240 ,4,0,0.,4.8,0.,4.8,0.,4.8,0.,4.8
1979-07-05 12:16:43.040 ,4,0,0.,4.8,0.,4.8,0.,4.8,0.,4.8
1979-07-05 12:16:47.840 ,5,0,0.,4.8,0.,4.8,0.,4.8,0.,4.8
1979-07-05 12:16:52.640 ,5,0,0.,4.8,0.,4.8,1.,4.8,0.,4.8
1979-07-05 12:16:57.440 ,5,0,0.,4.8,0.,4.8,0.,4.8,0.,4.8
1979-07-05 12:17:02.240 ,5,0,0.,4.8,0.,4.8,0.,4.8,0.,4.8
1979-07-05 12:17:07.040 ,5,0,0.,4.8,0.,4.8,0.,4.8,0.,4.8
1979-07-05 12:17:11.840 ,5,0,0.,4.8,0.,4.8,0.,4.8,0.,4.8
1979-07-05 12:17:16.640 ,5,0,0.,4.8,0.,4.8,0.,4.8,0.,4.8
1979-07-05 12:17:21.440 ,5,0,0.,4.8,0.,4.8,0.,4.8,0.,4.8
1979-07-05 12:17:26.240 ,5,0,0.,4.8,0.,4.8,0.,4.8,0.,4.8
1979-07-05 12:17:31.040 ,5,0,0.,4.8,0.,4.8,0.,4.8,0.,4.8
1979-07-05 12:17:35.840 ,6,0,0.,4.8,0.,4.8,0.,4.8,0.,4.8
1979-07-05 12:17:40.640 ,6,0,0.,4.8,0.,4.8,0.,4.8,0.,4.8
1979-07-05 12:17:45.440 ,6,0,0.,4.8,0.,4.8,0.,4.8,0.,4.8
1979-07-05 12:17:50.240 ,6,0,0.,4.8,0.,4.8,0.,4.8,0.,4.8
1979-07-05 12:17:55.040 ,6,0,0.,4.8,0.,4.8,0.,4.8,0.,4.8
1979-07-05 12:17:59.840 ,6,0,0.,4.8,0.,4.8,0.,4.8,0.,4.8
1979-07-05 12:18:04.640 ,6,0,1.,4.8,0.,4.8,0.,4.8,0.,4.8
1979-07-05 12:18:09.440 ,6,0,0.,4.8,0.,4.8,0.,4.8,0.,4.8
1979-07-05 12:18:14.240 ,6,0,0.,4.8,0.,4.8,0.,4.8,0.,4.8
1979-07-05 12:18:19.040 ,6,0,0.,4.8,0.,4.8,0.,4.8,0.,4.8
1979-07-05 12:18:23.840 ,7,0,0.,4.8,0.,4.8,0.,4.8,0.,4.8
1979-07-05 12:18:28.640 ,7,0,0.,4.8,0.,4.8,1.,4.8,0.,4.8
1979-07-05 12:18:33.440 ,7,0,1.,4.8,0.,4.8,0.,4.8,0.,4.8
1979-07-05 12:18:38.240 ,7,0,1.,4.8,0.,4.8,0.,4.8,0.,4.8
1979-07-05 12:18:43.040 ,7,0,2.,4.8,0.,4.8,0.,4.8,0.,4.8
1979-07-05 12:18:47.840 ,7,0,0.,4.8,0.,4.8,0.,4.8,0.,4.8
1979-07-05 12:18:52.640 ,7,0,1.,4.8,0.,4.8,0.,4.8,0.,4.8
1979-07-05 12:18:57.440 ,7,0,0.,4.8,0.,4.8,0.,4.8,0.,4.8
1979-07-05 12:19:02.240 ,7,0,0.,4.8,0.,4.8,0.,4.8,0.,4.8
1979-07-05 12:19:07.040 ,7,0,0.,4.8,0.,4.8,0.,4.8,0.,4.8
1979-07-05 12:19:11.840 ,3,1,0.,4.8,0.,4.8,0.,4.8,0.,4.8
1979-07-05 12:19:16.640 ,3,1,1.,4.8,0.,4.8,0.,4.8,0.,4.8
1979-07-05 12:19:21.440 ,3,1,0.,4.8,0.,4.8,0.,4.8,0.,4.8
1979-07-05 12:19:26.240 ,3,1,1.,4.8,0.,4.8,0.,4.8,0.,4.8
1979-07-05 12:19:31.040 ,3,1,1.,4.8,0.,4.8,0.,4.8,0.,4.8
1979-07-05 12:19:35.840 ,0,1,2.,4.8,0.,4.8,1.,4.8,0.,4.8
1979-07-05 12:19:40.640 ,0,1,1.,4.8,0.,4.8,0.,4.8,0.,4.8
1979-07-05 12:19:45.440 ,0,1,1.,4.8,0.,4.8,0.,4.8,0.,4.8
1979-07-05 12:19:50.240 ,0,1,0.,4.8,0.,4.8,0.,4.8,0.,4.8
1979-07-05 12:19:55.040 ,0,1,0.,4.8,0.,4.8,0.,4.8,0.,4.8
1979-07-05 12:19:59.840 ,4,1,1.,4.8,0.,4.8,0.,4.8,0.,4.8
1979-07-05 12:20:04.640 ,4,1,0.,4.8,0.,4.8,0.,4.8,0.,4.8
1979-07-05 12:20:09.440 ,4,1,0.,4.8,0.,4.8,1.,4.8,0.,4.8
1979-07-05 12:20:14.240 ,4,1,1.,4.8,0.,4.8,0.,4.8,0.,4.8
1979-07-05 12:20:19.040 ,4,1,1.,4.8,0.,4.8,0.,4.8,0.,4.8
1979-07-05 12:20:23.840 ,7,1,0.,4.8,0.,4.8,0.,4.8,1.,4.8
1979-07-05 12:20:28.640 ,7,1,0.,4.8,0.,4.8,0.,4.8,0.,4.8
1979-07-05 12:20:33.440 ,7,1,0.,4.8,0.,4.8,0.,4.8,0.,4.8
1979-07-05 12:20:38.240 ,7,1,1.,4.8,0.,4.8,0.,4.8,0.,4.8
1979-07-05 12:20:43.040 ,7,1,2.,4.8,0.,4.8,0.,4.8,0.,4.8
1979-07-05 12:20:47.840 ,3,1,1.,4.8,0.,4.8,0.,4.8,0.,4.8
1979-07-05 12:20:52.640 ,3,1,2.,4.8,0.,4.8,0.,4.8,0.,4.8
1979-07-05 12:20:57.440 ,3,1,0.,4.8,0.,4.8,0.,4.8,0.,4.8
1979-07-05 12:21:02.240 ,3,1,0.,4.8,0.,4.8,0.,4.8,0.,4.8
1979-07-05 12:21:07.040 ,3,1,0.,4.8,0.,4.8,0.,4.8,0.,4.8
1979-07-05 12:21:11.840 ,0,1,0.,4.8,0.,4.8,0.,4.8,0.,4.8
1979-07-05 12:21:16.640 ,0,1,0.,4.8,0.,4.8,1.,4.8,0.,4.8
1979-07-05 12:21:21.440 ,0,1,1.,4.8,0.,4.8,1.,4.8,0.,4.8
1979-07-05 12:21:26.240 ,0,1,0.,4.8,0.,4.8,0.,4.8,0.,4.8
1979-07-05 12:21:31.040 ,0,1,1.,4.8,0.,4.8,0.,4.8,0.,4.8
1979-07-05 12:21:35.840 ,4,1,1.,4.8,1.,4.8,0.,4.8,0.,4.8
1979-07-05 12:21:40.640 ,4,1,0.,4.8,0.,4.8,0.,4.8,0.,4.8
1979-07-05 12:21:45.440 ,4,1,0.,4.8,0.,4.8,0.,4.8,0.,4.8
1979-07-05 12:21:50.240 ,4,1,0.,4.8,0.,4.8,0.,4.8,0.,4.8
1979-07-05 12:21:55.040 ,4,1,0.,4.8,0.,4.8,0.,4.8,0.,4.8
1979-07-05 12:21:59.840 ,7,1,1.,4.8,0.,4.8,0.,4.8,0.,4.8
1979-07-05 12:22:04.640 ,7,1,1.,4.8,1.,4.8,0.,4.8,0.,4.8
1979-07-05 12:22:09.440 ,7,1,1.,4.8,0.,4.8,0.,4.8,0.,4.8
1979-07-05 12:22:14.240 ,7,1,1.,4.8,0.,4.8,0.,4.8,0.,4.8
1979-07-05 12:22:19.040 ,7,1,0.,4.8,0.,4.8,1.,4.8,0.,4.8
1979-07-05 12:22:23.840 ,3,1,0.,4.8,0.,4.8,0.,4.8,0.,4.8
1979-07-05 12:22:28.640 ,3,1,1.,4.8,0.,4.8,0.,4.8,0.,4.8
1979-07-05 12:22:33.440 ,3,1,0.,4.8,0.,4.8,0.,4.8,0.,4.8
1979-07-05 12:22:38.240 ,3,1,1.,4.8,0.,4.8,0.,4.8,0.,4.8
1979-07-05 12:22:43.040 ,3,1,0.,4.8,0.,4.8,0.,4.8,0.,4.8
1979-07-05 12:22:47.840 ,0,1,0.,4.8,0.,4.8,0.,4.8,0.,4.8
1979-07-05 12:22:52.640 ,0,1,0.,4.8,0.,4.8,0.,4.8,0.,4.8
1979-07-05 12:22:57.440 ,0,1,0.,4.8,0.,4.8,1.,4.8,0.,4.8
1979-07-05 12:23:02.240 ,0,1,0.,4.8,0.,4.8,0.,4.8,0.,4.8
1979-07-05 12:23:07.040 ,0,1,0.,4.8,0.,4.8,0.,4.8,0.,4.8
1979-07-05 12:23:11.840 ,4,1,1.,4.8,0.,4.8,0.,4.8,0.,4.8
1979-07-05 12:23:16.640 ,4,1,0.,4.8,0.,4.8,0.,4.8,0.,4.8
1979-07-05 12:23:21.440 ,4,1,0.,4.8,0.,4.8,0.,4.8,0.,4.8
1979-07-05 12:23:26.240 ,4,1,1.,4.8,0.,4.8,0.,4.8,0.,4.8
1979-07-05 12:23:31.040 ,4,1,0.,4.8,0.,4.8,0.,4.8,0.,4.8
1979-07-05 12:23:35.840 ,7,1,0.,4.8,0.,4.8,1.,4.8,1.,4.8
1979-07-05 12:23:40.640 ,7,1,0.,4.8,0.,4.8,0.,4.8,0.,4.8
1979-07-05 12:23:45.440 ,7,1,0.,4.8,0.,4.8,0.,4.8,0.,4.8
1979-07-05 12:23:50.240 ,7,1,0.,4.8,0.,4.8,0.,4.8,0.,4.8
1979-07-05 12:23:55.040 ,7,1,0.,4.8,0.,4.8,0.,4.8,0.,4.8
1979-07-05 12:23:59.840 ,3,1,0.,4.8,0.,4.8,0.,4.8,0.,4.8
1979-07-05 12:24:04.640 ,3,1,0.,4.8,0.,4.8,0.,4.8,0.,4.8
1979-07-05 12:24:09.440 ,3,1,0.,4.8,0.,4.8,0.,4.8,0.,4.8
1979-07-05 12:24:14.240 ,3,1,1.,4.8,0.,4.8,0.,4.8,0.,4.8
1979-07-05 12:24:19.040 ,3,1,0.,4.8,0.,4.8,1.,4.8,0.,4.8
1979-07-05 12:24:23.840 ,0,1,0.,4.8,0.,4.8,0.,4.8,0.,4.8
1979-07-05 12:24:28.640 ,0,1,0.,4.8,0.,4.8,0.,4.8,0.,4.8
1979-07-05 12:24:33.440 ,0,1,0.,4.8,0.,4.8,1.,4.8,0.,4.8
1979-07-05 12:24:38.240 ,0,1,0.,4.8,0.,4.8,0.,4.8,0.,4.8
1979-07-05 12:24:43.040 ,0,1,2.,4.8,0.,4.8,0.,4.8,0.,4.8
1979-07-05 12:24:47.840 ,4,1,0.,4.8,0.,4.8,0.,4.8,0.,4.8
1979-07-05 12:24:52.640 ,4,1,0.,4.8,0.,4.8,0.,4.8,0.,4.8
1979-07-05 12:24:57.440 ,4,1,1.,4.8,0.,4.8,0.,4.8,0.,4.8
1979-07-05 12:25:02.240 ,4,1,0.,4.8,0.,4.8,0.,4.8,0.,4.8
1979-07-05 12:25:07.040 ,4,1,0.,4.8,0.,4.8,0.,4.8,0.,4.8
1979-07-05 12:25:11.840 ,7,1,0.,4.8,0.,4.8,0.,4.8,0.,4.8
1979-07-05 12:25:16.640 ,7,1,0.,4.8,0.,4.8,0.,4.8,0.,4.8
1979-07-05 12:25:21.440 ,7,1,1.,4.8,0.,4.8,0.,4.8,0.,4.8
1979-07-05 12:25:26.240 ,7,1,0.,4.8,0.,4.8,0.,4.8,0.,4.8
1979-07-05 12:25:31.040 ,7,1,1.,4.8,0.,4.8,0.,4.8,0.,4.8
1979-07-05 12:25:35.840 ,3,1,0.,4.8,0.,4.8,0.,4.8,0.,4.8
1979-07-05 12:25:40.640 ,3,1,2.,4.8,0.,4.8,0.,4.8,0.,4.8
1979-07-05 12:25:45.440 ,3,1,0.,4.8,0.,4.8,1.,4.8,0.,4.8
1979-07-05 12:25:50.240 ,3,1,0.,4.8,0.,4.8,0.,4.8,0.,4.8
1979-07-05 12:25:55.040 ,3,1,0.,4.8,0.,4.8,0.,4.8,0.,4.8
1979-07-05 12:25:59.840 ,0,1,2.,4.8,0.,4.8,0.,4.8,0.,4.8
1979-07-05 12:26:04.640 ,0,1,0.,4.8,0.,4.8,0.,4.8,0.,4.8
1979-07-05 12:26:09.440 ,0,1,0.,4.8,0.,4.8,0.,4.8,0.,4.8
1979-07-05 12:26:14.240 ,0,1,0.,4.8,0.,4.8,0.,4.8,0.,4.8
1979-07-05 12:26:19.040 ,0,1,2.,4.8,0.,4.8,0.,4.8,0.,4.8
1979-07-05 12:26:23.840 ,4,1,1.,4.8,0.,4.8,0.,4.8,0.,4.8
1979-07-05 12:26:28.640 ,4,1,0.,4.8,0.,4.8,0.,4.8,0.,4.8
1979-07-05 12:26:33.440 ,4,1,1.,4.8,0.,4.8,0.,4.8,0.,4.8
1979-07-05 12:26:38.240 ,4,1,1.,4.8,1.,4.8,0.,4.8,0.,4.8
1979-07-05 12:26:43.040 ,4,1,1.,4.8,0.,4.8,0.,4.8,0.,4.8
1979-07-05 12:26:47.840 ,7,1,2.,4.8,0.,4.8,0.,4.8,0.,4.8
1979-07-05 12:26:52.640 ,7,1,1.,4.8,0.,4.8,0.,4.8,0.,4.8
1979-07-05 12:26:57.440 ,7,1,0.,4.8,0.,4.8,0.,4.8,0.,4.8
1979-07-05 12:27:02.240 ,7,1,2.,4.8,0.,4.8,0.,4.8,0.,4.8
1979-07-05 12:27:07.040 ,7,1,2.,4.8,0.,4.8,0.,4.8,0.,4.8
1979-07-05 12:27:11.840 ,3,1,2.,4.8,0.,4.8,0.,4.8,0.,4.8
1979-07-05 12:27:16.640 ,3,1,1.,4.8,0.,4.8,0.,4.8,0.,4.8
1979-07-05 12:27:21.440 ,3,1,0.,4.8,0.,4.8,0.,4.8,0.,4.8
1979-07-05 12:27:26.240 ,3,1,1.,4.8,0.,4.8,0.,4.8,0.,4.8
1979-07-05 12:27:31.040 ,3,1,0.,4.8,0.,4.8,0.,4.8,0.,4.8
1979-07-05 12:27:35.840 ,0,1,2.,4.8,0.,4.8,0.,4.8,0.,4.8
1979-07-05 12:27:40.640 ,0,1,1.,4.8,0.,4.8,0.,4.8,0.,4.8
1979-07-05 12:27:45.440 ,0,1,0.,4.8,1.,4.8,0.,4.8,0.,4.8
1979-07-05 12:27:50.240 ,0,1,0.,4.8,0.,4.8,0.,4.8,0.,4.8
1979-07-05 12:27:55.040 ,0,1,1.,4.8,0.,4.8,0.,4.8,0.,4.8
1979-07-05 12:27:59.840 ,4,1,0.,4.8,0.,4.8,0.,4.8,0.,4.8
1979-07-05 12:28:04.640 ,4,1,1.,4.8,0.,4.8,0.,4.8,0.,4.8
1979-07-05 12:28:09.440 ,4,1,0.,4.8,0.,4.8,0.,4.8,0.,4.8
1979-07-05 12:28:14.240 ,4,1,0.,4.8,0.,4.8,0.,4.8,0.,4.8
1979-07-05 12:28:19.040 ,4,1,0.,4.8,0.,4.8,1.,4.8,0.,4.8
1979-07-05 12:28:23.840 ,7,1,0.,4.8,0.,4.8,0.,4.8,0.,4.8
1979-07-05 12:28:28.640 ,7,1,0.,4.8,0.,4.8,0.,4.8,0.,4.8
1979-07-05 12:28:33.440 ,7,1,0.,4.8,0.,4.8,1.,4.8,0.,4.8
1979-07-05 12:28:38.240 ,7,1,0.,4.8,0.,4.8,0.,4.8,0.,4.8
1979-07-05 12:28:43.040 ,7,1,0.,4.8,0.,4.8,0.,4.8,0.,4.8
1979-07-05 12:28:47.840 ,3,1,1.,4.8,0.,4.8,0.,4.8,0.,4.8
1979-07-05 12:28:52.640 ,3,1,1.,4.8,0.,4.8,1.,4.8,0.,4.8
1979-07-05 12:28:57.440 ,3,1,0.,4.8,0.,4.8,0.,4.8,0.,4.8
1979-07-05 12:29:02.240 ,3,1,0.,4.8,0.,4.8,0.,4.8,0.,4.8
1979-07-05 12:29:07.040 ,3,1,0.,4.8,0.,4.8,0.,4.8,0.,4.8
1979-07-05 12:29:11.840 ,0,1,0.,4.8,0.,4.8,0.,4.8,0.,4.8
1979-07-05 12:29:16.640 ,0,1,0.,4.8,0.,4.8,0.,4.8,0.,4.8
1979-07-05 12:29:21.440 ,0,1,0.,4.8,0.,4.8,0.,4.8,0.,4.8
1979-07-05 12:29:26.240 ,0,1,0.,4.8,0.,4.8,0.,4.8,0.,4.8
1979-07-05 12:29:31.040 ,0,1,0.,4.8,0.,4.8,0.,4.8,0.,4.8
1979-07-05 12:29:35.840 ,0,0,0.,4.8,0.,4.8,0.,4.8,0.,4.8
1979-07-05 12:29:40.640 ,0,0,0.,4.8,0.,4.8,0.,4.8,0.,4.8
1979-07-05 12:29:45.440 ,0,0,0.,4.8,0.,4.8,0.,4.8,0.,4.8
1979-07-05 12:29:50.240 ,0,0,0.,4.8,0.,4.8,0.,4.8,0.,4.8
1979-07-05 12:29:55.040 ,0,0,0.,4.8,0.,4.8,0.,4.8,0.,4.8
1979-07-05 12:29:59.840 ,0,0,0.,4.8,0.,4.8,1.,4.8,0.,4.8
1979-07-05 12:30:04.640 ,0,0,0.,4.8,0.,4.8,0.,4.8,0.,4.8
1979-07-05 12:30:09.440 ,0,0,0.,4.8,0.,4.8,0.,4.8,0.,4.8
1979-07-05 12:30:14.240 ,0,0,0.,4.8,0.,4.8,0.,4.8,0.,4.8
1979-07-05 12:30:19.040 ,0,0,0.,4.8,0.,4.8,1.,4.8,0.,4.8
1979-07-05 12:30:23.840 ,5,0,1.,4.8,0.,4.8,0.,4.8,0.,4.8
1979-07-05 12:30:28.640 ,5,0,0.,4.8,0.,4.8,0.,4.8,0.,4.8
1979-07-05 12:30:33.440 ,5,0,1.,4.8,0.,4.8,0.,4.8,0.,4.8
1979-07-05 12:30:38.240 ,5,0,1.,4.8,0.,4.8,0.,4.8,0.,4.8
1979-07-05 12:30:43.040 ,5,0,0.,4.8,0.,4.8,1.,4.8,0.,4.8
1979-07-05 12:30:47.840 ,5,0,0.,4.8,0.,4.8,0.,4.8,0.,4.8
1979-07-05 12:30:52.640 ,5,0,0.,4.8,0.,4.8,0.,4.8,0.,4.8
1979-07-05 12:30:57.440 ,5,0,2.,4.8,0.,4.8,0.,4.8,0.,4.8
1979-07-05 12:31:02.240 ,5,0,0.,4.8,0.,4.8,0.,4.8,0.,4.8
1979-07-05 12:31:07.040 ,5,0,0.,4.8,0.,4.8,1.,4.8,0.,4.8
1979-07-05 12:31:11.840 ,4,0,0.,4.8,0.,4.8,1.,4.8,0.,4.8
1979-07-05 12:31:16.640 ,4,0,0.,4.8,1.,4.8,0.,4.8,0.,4.8
1979-07-05 12:31:21.440 ,4,0,0.,4.8,0.,4.8,0.,4.8,0.,4.8
1979-07-05 12:31:26.240 ,4,0,1.,4.8,0.,4.8,0.,4.8,0.,4.8
1979-07-05 12:31:31.040 ,4,0,0.,4.8,0.,4.8,0.,4.8,0.,4.8
1979-07-05 12:31:35.840 ,4,0,1.,4.8,0.,4.8,0.,4.8,0.,4.8
1979-07-05 12:31:40.640 ,4,0,0.,4.8,0.,4.8,0.,4.8,0.,4.8
1979-07-05 12:31:45.440 ,4,0,0.,4.8,0.,4.8,0.,4.8,0.,4.8
1979-07-05 12:31:50.240 ,4,0,0.,4.8,0.,4.8,0.,4.8,0.,4.8
1979-07-05 12:31:55.040 ,4,0,0.,4.8,0.,4.8,0.,4.8,0.,4.8
1979-07-05 12:31:59.840 ,3,0,0.,4.8,0.,4.8,0.,4.8,0.,4.8
1979-07-05 12:32:04.640 ,3,0,0.,4.8,0.,4.8,0.,4.8,0.,4.8
1979-07-05 12:32:09.440 ,3,0,0.,4.8,0.,4.8,0.,4.8,0.,4.8
1979-07-05 12:32:14.240 ,3,0,0.,4.8,0.,4.8,0.,4.8,0.,4.8
1979-07-05 12:32:19.040 ,3,0,0.,4.8,1.,4.8,0.,4.8,0.,4.8
1979-07-05 12:32:23.840 ,3,0,0.,4.8,0.,4.8,0.,4.8,0.,4.8
1979-07-05 12:32:28.640 ,3,0,0.,4.8,0.,4.8,0.,4.8,0.,4.8
1979-07-05 12:32:33.440 ,3,0,0.,4.8,0.,4.8,0.,4.8,0.,4.8
1979-07-05 12:32:38.240 ,3,0,0.,4.8,0.,4.8,1.,4.8,0.,4.8
1979-07-05 12:32:43.040 ,3,0,0.,4.8,0.,4.8,0.,4.8,0.,4.8
1979-07-05 12:32:47.840 ,2,0,0.,4.8,0.,4.8,0.,4.8,0.,4.8
1979-07-05 12:32:52.640 ,2,0,0.,4.8,0.,4.8,0.,4.8,0.,4.8
1979-07-05 12:32:57.440 ,2,0,0.,4.8,0.,4.8,0.,4.8,0.,4.8
1979-07-05 12:33:02.240 ,2,0,1.,4.8,0.,4.8,0.,4.8,0.,4.8
1979-07-05 12:33:07.040 ,2,0,0.,4.8,0.,4.8,0.,4.8,0.,4.8
1979-07-05 12:33:11.840 ,2,0,0.,4.8,0.,4.8,1.,4.8,0.,4.8
1979-07-05 12:33:16.640 ,2,0,0.,4.8,0.,4.8,0.,4.8,0.,4.8